Regional Weather Roundup
Issued by NWS Upton, NY

Current Version | Previous Version | Graphics & Text | Print | Product List | Glossary Off
Versions: 1 2 3 4 5 6 7 8 9 10 11 12 13 14 15 16 17 18 19 20 21 22 23 24 25 26 27 28 29 30 31 32 33 34 35 36 37 38 39 40 41 42 43 44 45 46 47 48 49 50

000
ASUS41 KOKX 271508
RWROKX

REGIONAL WEATHER ROUNDUP
NATIONAL WEATHER SERVICE NEW YORK NY
1100 AM EDT MON JUL 27 2015

NOTE: "FAIR" INDICATES FEW OR NO CLOUDS BELOW 12,000 FEET WITH NO
SIGNIFICANT WEATHER AND/OR OBSTRUCTIONS TO VISIBILITY.

NYZ071-072-176-178-NJZ106-104-271600-
NEW YORK CITY METRO AREA


CITY           SKY/WX    TMP DP  RH WIND       PRES   REMARKS
CENTRAL PARK   PTSUNNY   79  67  66 CALM      30.06S
LAGUARDIA APRT PTSUNNY   80  65  59 S7        30.03S
KENNEDY INTL   PTSUNNY   79  66  64 S6        30.05R
NEWARK/LIBERTY PTSUNNY   81  66  60 VRB3      30.03S
BRNX BOT. GARD   N/A     81  66  61 S2        30.06R
TETERBORO      CLOUDY    81  65  58 VRB3      30.02S
$$

NYZ177-179-078>081-271600-
LONG ISLAND NEW YORK

CITY           SKY/WX    TMP DP  RH WIND       PRES   REMARKS
FARMINGDALE    PTSUNNY   77  66  68 S8        30.05R
ISLIP          CLOUDY    80  63  55 VRB6      30.03R
SHIRLEY        PTSUNNY   80  66  62 CALM      30.05R
WESTHAMPTON    CLOUDY    80  71  74 CALM      30.07R
MONTAUK POINT    N/A     73  68  84 CALM      30.08R
$$

NYZ052-065-067-271600-
HUDSON VALLEY

CITY           SKY/WX    TMP DP  RH WIND       PRES   REMARKS
WHITE PLAINS   PTSUNNY   76  68  76 CALM      30.04S
NEWBURGH       MOSUNNY   79  68  69 W8        30.04F
MONTGOMERY     SUNNY     80  67  64 VRB5      30.03S
POUGHKEEPSIE   MOSUNNY   81  66  60 VRB5      30.02S
ALBANY         MOSUNNY   80  67  64 VRB5      30.02S
$$

NJZ001-105-106-008-010-013-015-019>022-104-271600-
NEW JERSEY

CITY           SKY/WX    TMP DP  RH WIND       PRES   REMARKS
NEWARK/LIBERTY PTSUNNY   81  66  60 VRB3      30.03S
TETERBORO      CLOUDY    81  65  58 VRB3      30.02S
CALDWELL       MOSUNNY   77  67  71 SW5       30.04S
MORRISTOWN     PTSUNNY   79  70  73 CALM      30.04F
SOMERVILLE     MOSUNNY   80  68  66 CALM      30.02S
SUSSEX         CLOUDY    78  67  68 VRB3      30.04S
ANDOVER          N/A     76  69  79 SW3       30.06S
TRENTON        CLOUDY    79  69  71 W3        30.03S
MILLVILLE      PTSUNNY   79  70  74 S5        30.04S
ATLANTIC CITY  CLOUDY    77  70  79 SW6       30.05R
WRIGHTSTOWN    CLOUDY    77  71  81 S6        30.02R
TOMS RIVER     PTSUNNY   79  70  73 W3        30.04S
BELMAR         CLOUDY    77  66  69 SW5       30.04S
$$

PAZ047>061-062-071-271600-
EASTERN PENNSYLVANIA

CITY           SKY/WX    TMP DP  RH WIND       PRES   REMARKS
PHILADELPHIA   PTSUNNY   79  69  71 VRB5      30.04S
ALLENTOWN      PTSUNNY   77  68  73 CALM      30.04S
SCRANTON       CLOUDY    75  67  76 CALM      30.06S
$$

CTZ002-004>006-009-010-012-RIZ004-006-007-MAZ004-011-015-271600-
SOUTHERN NEW ENGLAND
 IN CT

CITY           SKY/WX    TMP DP  RH WIND       PRES   REMARKS
BRADLEY INTL   PTSUNNY   76  66  71 S5        30.02F
HARTFORD       CLOUDY    77  68  73 S6        30.03R
DANBURY        PTSUNNY   76  66  71 S5        30.06S
WTRBRY/OXFORD  MOSUNNY   75  64  69 SW6       30.08R
BRIDGEPORT     LGT RAIN  73  70  90 CALM      30.04R
MERIDEN        CLOUDY    76  68  76 S5        30.04R
NEW HAVEN      CLOUDY    72  68  87 S5        30.06R
CHESTER        FAIR      70  70 100 S6        30.08R
GROTON         LGT RAIN  70  68  93 S5        30.05S
WILLIMANTIC    CLOUDY    76  67  73 SW5       30.05R

 IN RI

CITY           SKY/WX    TMP DP  RH WIND       PRES   REMARKS
PROVIDENCE     CLOUDY    71  68  90 S10       30.07R
BLOCK ISLAND   CLOUDY    73  72  94 W6        30.08R
WESTERLY       LGT RAIN  71  69  93 SW3       30.07S FOG

 IN MA

CITY           SKY/WX    TMP DP  RH WIND       PRES   REMARKS
BOSTON         PTSUNNY   78  68  71 S14       30.02S
WORCESTER      PTSUNNY   76  66  71 SW9       30.06R
WESTFIELD      MOSUNNY   77  66  68 S7        30.02F
PROVINCETOWN   CLOUDY    75  66  73 S13       30.05S
NANTUCKET      CLOUDY    74  67  78 S9        30.07R
$$

ANZ330-335-338-340-345-350-353-355-271600-
COASTAL MARINE OBSERVATIONS


STATION/POSITION TIME  SKY/WX   TEMP    WIND        PRES    VSBY  WAVE
                                AIR SEA DIR/SP/G                  HT/PER
                 (UTC)          (F)     (DEG/KT/KT) (MB)    (MI)  (FT/S)
NY HARB ENTRANCE 1450            74 74  200/  4/  6 1017.2          2/11
4S FIRE IS       NOT AVBL
20S FIRE ISLAND  1450            72 73  360/  2/  2 1017.6          2/11
GREAT SOUTH BAY  1430            76 79  250/  6/  6   N/A
23SW MTP         1450            74 74  250/  8/ 10 1017.5          2/11
HUDSON CANYON    NOT AVBL
KINGS POINT      1400            76 69  280/  1/  2 1016.3
CENTRAL LI SOUND NOT AVBL
EASTERN LI SOUND 1400            70 69  250/  8/ 12   N/A
ROBBINS REEF     1400            73     130/  4/  5 1015.9
$$


>>>>>>>>>>>>>>>>>>>>>>>>>>>> KEY <<<<<<<<<<<<<<<<<<<<<<<<<<<
>                                                          <
>     SKY/WX - SKY CONDITION/PRESENT WEATHER               <
>     TMP    - TEMPERATURE IN FAHRENHEIT                   <
>     DP     - DEWPOINT IN FAHRENHEIT                      <
>     RH     - RELATIVE HUMIDITY IN PERCENT                <
>     WIND   - DIRECTION AND SPEED IN MPH                  <
>     PRES   - MEAN SEA LEVEL PRESSURE IN INCHES OF HG     <
>     WCI    - WIND CHILL INDEX                            <
>     VSB    - VISIBILITY IN MILES                         <
>     HX     - HEAT INDEX                                  <
>     TC     - TEMPERATURE IN CELSIUS                      <
>     VRB    - VARIABLE WIND DIRECTION                     <
>                                                          <
>>>>>>>>>>>>>>>>>>>>>>>>>>>> KEY <<<<<<<<<<<<<<<<<<<<<<<<<<<




USA.gov is the U.S. government's official web portal to all federal, state and local government web resources and services.